QPF
0.00 0.00 0.00 0.00 0.00 0.00 0.00 0.00 0.00 0.00 0.01 0.01 0.01 0.02 0.02 0.03 0.03 0.03 0.04 0.05 0.06 0.07 0.11 0.14 0.14 0.16 0.16 0.15 0.14 0.13 0.12 0.12 0.09 0.09 0.12 0.13 0.16 0.19 0.17 0.13 0.14 0.13 0.07
0.00 0.00 0.00 0.00 0.00 0.00 0.00 0.00 0.00 0.00 0.00 0.00 0.01 0.02 0.02 0.02 0.02 0.03 0.04 0.04 0.05 0.06 0.07 0.09 0.11 0.16 0.16 0.14 0.13 0.12 0.11 0.10 0.10 0.09 0.09 0.09 0.11 0.15 0.16 0.17 0.16 0.13 0.09
0.00 0.00 0.00 0.00 0.00 0.00 0.00 0.00 0.00 0.00 0.00 0.00 0.01 0.01 0.01 0.01 0.01 0.03 0.04 0.04 0.05 0.06 0.07 0.07 0.08 0.13 0.16 0.15 0.13 0.11 0.11 0.11 0.12 0.10 0.09 0.09 0.09 0.12 0.15 0.16 0.16 0.16 0.12
0.00 0.00 0.00 0.00 0.00 0.00 0.00 0.00 0.00 0.00 0.00 0.00 0.01 0.01 0.01 0.01 0.01 0.02 0.03 0.04 0.04 0.05 0.06 0.07 0.08 0.09 0.12 0.13 0.13 0.12 0.13 0.14 0.14 0.13 0.11 0.09 0.08 0.10 0.12 0.13 0.14 0.14 0.14
0.00 0.00 0.00 0.00 0.00 0.00 0.00 0.00 0.00 0.00 0.00 0.00 0.00 0.01 0.01 0.01 0.01 0.01 0.01 0.01 0.03 0.04 0.05 0.05 0.06 0.07 0.07 0.09 0.11 0.13 0.13 0.14 0.15 0.15 0.13 0.11 0.10 0.11 0.10 0.10 0.12 0.14 0.17
0.00 0.00 0.00 0.00 0.00 0.00 0.00 0.00 0.00 0.00 0.00 0.00 0.00 0.01 0.02 0.01 0.00 0.00 0.01 0.01 0.02 0.04 0.06 0.06 0.05 0.06 0.07 0.06 0.06 0.08 0.10 0.11 0.11 0.11 0.12 0.13 0.11 0.10 0.09 0.11 0.12 0.15 0.20
0.00 0.00 0.00 0.00 0.00 0.00 0.00 0.00 0.00 0.00 0.00 0.00 0.01 0.01 0.03 0.02 0.00 0.00 0.01 0.01 0.02 0.05 0.07 0.06 0.04 0.04 0.07 0.09 0.08 0.07 0.08 0.09 0.10 0.11 0.10 0.11 0.13 0.13 0.13 0.13 0.13 0.13 0.14
0.00 0.00 0.00 0.00 0.00 0.00 0.00 0.00 0.00 0.00 0.01 0.01 0.01 0.01 0.02 0.02 0.00 0.00 0.01 0.02 0.05 0.07 0.06 0.05 0.05 0.05 0.07 0.09 0.09 0.09 0.09 0.08 0.07 0.08 0.10 0.11 0.12 0.14 0.16 0.19 0.20 0.20 0.20
0.00 0.00 0.00 0.00 0.00 0.00 0.00 0.00 0.00 0.00 0.00 0.00 0.00 0.01 0.01 0.01 0.01 0.00 0.00 0.03 0.06 0.09 0.06 0.04 0.05 0.06 0.05 0.05 0.06 0.09 0.10 0.12 0.11 0.09 0.11 0.13 0.15 0.17 0.19 0.22 0.27 0.28 0.28
0.00 0.00 0.00 0.00 0.00 0.00 0.00 0.00 0.00 0.00 0.00 0.00 0.00 0.01 0.00 0.00 0.00 0.00 0.00 0.03 0.06 0.07 0.06 0.05 0.06 0.04 0.02 0.03 0.05 0.08 0.11 0.15 0.15 0.11 0.11 0.12 0.14 0.16 0.20 0.21 0.23 0.25 0.25
0.00 0.00 0.00 0.00 0.00 0.00 0.00 0.00 0.00 0.00 0.00 0.00 0.00 0.01 0.00 0.00 0.00 0.00 0.00 0.01 0.04 0.04 0.05 0.07 0.06 0.04 0.02 0.03 0.06 0.09 0.12 0.13 0.15 0.16 0.18 0.17 0.17 0.18 0.21 0.27 0.28 0.24 0.20
0.00 0.00 0.00 0.00 0.00 0.00 0.00 0.00 0.00 0.00 0.00 0.00 0.00 0.01 0.01 0.00 0.00 0.00 0.00 0.00 0.01 0.02 0.03 0.04 0.04 0.03 0.03 0.03 0.05 0.08 0.12 0.12 0.14 0.18 0.22 0.22 0.20 0.20 0.21 0.24 0.28 0.27 0.20
0.00 0.00 0.00 0.00 0.00 0.00 0.00 0.00 0.00 0.00 0.00 0.00 0.00 0.01 0.01 0.00 0.00 0.00 0.00 0.00 0.00 0.01 0.01 0.01 0.02 0.02 0.03 0.03 0.06 0.09 0.11 0.12 0.18 0.20 0.22 0.23 0.22 0.21 0.20 0.22 0.24 0.27 0.24
0.00 0.00 0.00 0.00 0.00 0.00 0.00 0.00 0.00 0.00 0.00 0.00 0.00 0.00 0.00 0.00 0.00 0.00 0.01 0.01 0.01 0.01 0.01 0.01 0.01 0.02 0.02 0.03 0.05 0.07 0.09 0.13 0.20 0.21 0.22 0.25 0.24 0.22 0.20 0.19 0.20 0.23 0.26
0.00 0.00 0.00 0.00 0.00 0.00 0.00 0.00 0.00 0.00 0.00 0.00 0.00 0.00 0.00 0.00 0.00 0.00 0.00 0.01 0.01 0.01 0.01 0.02 0.03 0.03 0.04 0.04 0.06 0.08 0.08 0.10 0.17 0.18 0.18 0.20 0.23 0.23 0.20 0.17 0.17 0.19 0.19
0.00 0.00 0.00 0.00 0.00 0.00 0.00 0.00 0.00 0.00 0.00 0.00 0.00 0.00 0.00 0.00 0.00 0.00 0.00 0.00 0.00 0.00 0.01 0.02 0.03 0.03 0.04 0.05 0.06 0.06 0.05 0.06 0.09 0.12 0.14 0.16 0.17 0.19 0.21 0.18 0.17 0.17 0.18
0.00 0.00 0.00 0.00 0.00 0.00 0.00 0.00 0.00 0.00 0.00 0.00 0.00 0.00 0.00 0.00 0.00 0.00 0.00 0.00 0.00 0.00 0.01 0.02 0.03 0.03 0.03 0.05 0.05 0.04 0.04 0.03 0.05 0.09 0.09 0.11 0.15 0.16 0.19 0.22 0.20 0.17 0.16
0.00 0.00 0.00 0.00 0.00 0.00 0.00 0.00 0.00 0.00 0.00 0.00 0.00 0.00 0.00 0.00 0.00 0.00 0.00 0.00 0.00 0.00 0.02 0.02 0.02 0.02 0.03 0.04 0.04 0.03 0.04 0.04 0.05 0.07 0.08 0.08 0.11 0.12 0.14 0.18 0.18 0.15 0.13
0.00 0.00 0.00 0.00 0.00 0.00 0.00 0.00 0.00 0.00 0.00 0.00 0.00 0.00 0.00 0.00 0.00 0.00 0.00 0.00 0.00 0.01 0.01 0.01 0.01 0.01 0.01 0.03 0.03 0.02 0.02 0.03 0.04 0.05 0.07 0.08 0.11 0.11 0.10 0.11 0.11 0.11 0.10
0.00 0.00 0.00 0.00 0.00 0.00 0.00 0.00 0.00 0.00 0.00 0.00 0.00 0.00 0.00 0.00 0.00 0.00 0.00 0.00 0.00 0.01 0.01 0.01 0.02 0.01 0.01 0.02 0.02 0.02 0.02 0.02 0.03 0.04 0.06 0.06 0.09 0.09 0.08 0.07 0.06 0.05 0.06
0.00 0.00 0.00 0.00 0.00 0.00 0.00 0.00 0.00 0.00 0.00 0.00 0.00 0.00 0.00 0.00 0.00 0.00 0.00 0.00 0.00 0.00 0.00 0.01 0.01 0.02 0.01 0.01 0.01 0.01 0.01 0.02 0.03 0.03 0.03 0.03 0.04 0.06 0.06 0.07 0.06 0.04 0.03
0.00 0.00 0.00 0.00 0.00 0.00 0.00 0.00 0.00 0.00 0.00 0.00 0.00 0.00 0.00 0.00 0.00 0.00 0.00 0.00 0.00 0.00 0.00 0.00 0.01 0.01 0.01 0.01 0.02 0.02 0.02 0.02 0.03 0.03 0.03 0.03 0.03 0.03 0.02 0.04 0.04 0.04 0.02
0.00 0.00 0.00 0.00 0.00 0.00 0.00 0.00 0.00 0.00 0.00 0.00 0.00 0.00 0.00 0.00 0.00 0.00 0.00 0.00 0.00 0.00 0.00 0.00 0.00 0.01 0.01 0.01 0.02 0.02 0.02 0.02 0.03 0.02 0.03 0.03 0.03 0.02 0.02 0.02 0.02 0.02 0.02
0.00 0.00 0.00 0.00 0.00 0.00 0.00 0.00 0.00 0.00 0.00 0.00 0.00 0.00 0.00 0.00 0.00 0.00 0.00 0.00 0.00 0.00 0.00 0.01 0.01 0.01 0.01 0.01 0.02 0.02 0.02 0.03 0.03 0.04 0.05 0.04 0.04 0.03 0.03 0.03 0.02 0.02 0.02
0.00 0.00 0.00 0.00 0.00 0.00 0.00 0.00 0.00 0.00 0.00 0.00 0.00 0.00 0.00 0.00 0.00 0.00 0.00 0.00 0.01 0.01 0.01 0.01 0.02 0.01 0.01 0.01 0.01 0.02 0.03 0.04 0.04 0.05 0.06 0.07 0.06 0.06 0.05 0.04 0.03 0.03 0.02
0.00 0.00 0.00 0.00 0.00 0.00 0.00 0.00 0.00 0.00 0.00 0.00 0.00 0.00 0.00 0.00 0.00 0.00 0.00 0.01 0.01 0.01 0.01 0.01 0.02 0.02 0.02 0.02 0.01 0.01 0.02 0.03 0.04 0.04 0.07 0.10 0.11 0.09 0.08 0.06 0.04 0.04 0.03
MSLP
1012.71 1012.82 1012.93 1013.01 1013.04 1013.01 1012.93 1012.79 1012.64 1012.48 1012.33 1012.22 1012.12 1012.03 1011.93 1011.80 1011.63 1011.42 1011.15 1010.84 1010.51 1010.17 1009.85 1009.54 1009.28 1009.05 1008.87 1008.73 1008.64 1008.60 1008.59 1008.63 1008.71 1008.83 1008.98 1009.15 1009.35 1009.57 1009.81 1010.08 1010.39 1010.75 1011.16
1012.49 1012.57 1012.67 1012.75 1012.80 1012.80 1012.75 1012.66 1012.54 1012.41 1012.28 1012.16 1012.05 1011.94 1011.83 1011.69 1011.52 1011.30 1011.03 1010.72 1010.36 1009.99 1009.60 1009.22 1008.87 1008.54 1008.27 1008.07 1007.93 1007.87 1007.89 1007.98 1008.13 1008.34 1008.58 1008.83 1009.10 1009.36 1009.63 1009.90 1010.20 1010.54 1010.92
1012.33 1012.41 1012.50 1012.58 1012.65 1012.67 1012.65 1012.59 1012.50 1012.38 1012.26 1012.13 1012.01 1011.88 1011.74 1011.58 1011.40 1011.18 1010.91 1010.60 1010.24 1009.85 1009.43 1009.01 1008.59 1008.21 1007.87 1007.61 1007.43 1007.35 1007.37 1007.49 1007.68 1007.94 1008.24 1008.55 1008.85 1009.15 1009.44 1009.72 1010.01 1010.34 1010.71
1012.18 1012.27 1012.37 1012.48 1012.56 1012.60 1012.61 1012.57 1012.49 1012.38 1012.24 1012.10 1011.95 1011.79 1011.62 1011.45 1011.25 1011.02 1010.76 1010.46 1010.11 1009.73 1009.31 1008.87 1008.44 1008.02 1007.65 1007.35 1007.14 1007.04 1007.05 1007.16 1007.36 1007.62 1007.93 1008.25 1008.56 1008.86 1009.15 1009.43 1009.72 1010.05 1010.44
1012.00 1012.12 1012.25 1012.37 1012.46 1012.52 1012.54 1012.51 1012.44 1012.32 1012.18 1012.01 1011.83 1011.64 1011.45 1011.24 1011.03 1010.80 1010.55 1010.26 1009.94 1009.58 1009.19 1008.77 1008.34 1007.93 1007.55 1007.24 1007.01 1006.89 1006.87 1006.95 1007.11 1007.34 1007.61 1007.89 1008.17 1008.44 1008.70 1008.97 1009.26 1009.60 1010.00
1011.74 1011.90 1012.05 1012.19 1012.30 1012.37 1012.39 1012.36 1012.29 1012.17 1012.01 1011.82 1011.62 1011.41 1011.18 1010.96 1010.73 1010.50 1010.26 1009.99 1009.70 1009.38 1009.02 1008.64 1008.25 1007.86 1007.50 1007.19 1006.96 1006.81 1006.75 1006.78 1006.88 1007.03 1007.22 1007.43 1007.63 1007.84 1008.05 1008.29 1008.57 1008.92 1009.34
1011.39 1011.58 1011.75 1011.90 1012.01 1012.08 1012.10 1012.07 1011.99 1011.87 1011.71 1011.51 1011.29 1011.07 1010.83 1010.60 1010.36 1010.13 1009.90 1009.65 1009.38 1009.10 1008.78 1008.45 1008.10 1007.75 1007.42 1007.13 1006.89 1006.72 1006.62 1006.59 1006.61 1006.67 1006.75 1006.85 1006.96 1007.08 1007.23 1007.42 1007.68 1008.03 1008.48
1010.96 1011.16 1011.33 1011.47 1011.57 1011.63 1011.65 1011.61 1011.53 1011.42 1011.26 1011.07 1010.87 1010.65 1010.41 1010.18 1009.95 1009.73 1009.50 1009.27 1009.02 1008.76 1008.48 1008.18 1007.87 1007.56 1007.27 1007.00 1006.76 1006.58 1006.44 1006.34 1006.28 1006.24 1006.21 1006.20 1006.20 1006.22 1006.29 1006.43 1006.66 1007.00 1007.47
1010.48 1010.66 1010.81 1010.93 1011.01 1011.05 1011.05 1011.01 1010.94 1010.84 1010.70 1010.54 1010.37 1010.17 1009.97 1009.76 1009.55 1009.34 1009.12 1008.90 1008.66 1008.41 1008.15 1007.88 1007.59 1007.31 1007.04 1006.78 1006.56 1006.36 1006.19 1006.04 1005.90 1005.78 1005.66 1005.54 1005.44 1005.37 1005.37 1005.45 1005.65 1005.98 1006.47
1010.02 1010.15 1010.26 1010.33 1010.36 1010.37 1010.35 1010.31 1010.25 1010.17 1010.07 1009.96 1009.83 1009.69 1009.54 1009.38 1009.20 1009.01 1008.81 1008.60 1008.37 1008.12 1007.86 1007.59 1007.31 1007.04 1006.77 1006.53 1006.30 1006.09 1005.89 1005.71 1005.53 1005.34 1005.15 1004.95 1004.78 1004.65 1004.58 1004.62 1004.79 1005.11 1005.60
1009.65 1009.70 1009.73 1009.73 1009.71 1009.67 1009.62 1009.57 1009.51 1009.46 1009.41 1009.35 1009.29 1009.22 1009.14 1009.04 1008.92 1008.77 1008.60 1008.40 1008.17 1007.92 1007.65 1007.36 1007.08 1006.79 1006.52 1006.27 1006.04 1005.82 1005.61 1005.41 1005.20 1004.98 1004.75 1004.52 1004.30 1004.13 1004.04 1004.05 1004.20 1004.51 1004.99
1009.40 1009.35 1009.29 1009.20 1009.11 1009.01 1008.92 1008.84 1008.78 1008.75 1008.73 1008.74 1008.75 1008.76 1008.76 1008.73 1008.68 1008.59 1008.46 1008.29 1008.07 1007.82 1007.54 1007.24 1006.93 1006.62 1006.33 1006.06 1005.81 1005.59 1005.38 1005.17 1004.96 1004.74 1004.51 1004.28 1004.06 1003.89 1003.79 1003.79 1003.93 1004.23 1004.71
1009.30 1009.15 1008.98 1008.80 1008.61 1008.44 1008.28 1008.17 1008.09 1008.05 1008.06 1008.11 1008.18 1008.26 1008.34 1008.41 1008.44 1008.42 1008.35 1008.22 1008.03 1007.79 1007.50 1007.19 1006.85 1006.53 1006.21 1005.92 1005.66 1005.43 1005.22 1005.02 1004.83 1004.64 1004.43 1004.24 1004.05 1003.91 1003.83 1003.85 1004.00 1004.29 1004.74
1009.36 1009.10 1008.82 1008.53 1008.25 1007.98 1007.76 1007.57 1007.45 1007.39 1007.40 1007.46 1007.57 1007.71 1007.86 1008.00 1008.11 1008.18 1008.18 1008.11 1007.97 1007.75 1007.48 1007.16 1006.82 1006.48 1006.14 1005.84 1005.57 1005.33 1005.13 1004.96 1004.80 1004.65 1004.50 1004.36 1004.24 1004.15 1004.12 1004.17 1004.33 1004.61 1005.04
1009.55 1009.19 1008.81 1008.42 1008.04 1007.68 1007.35 1007.09 1006.89 1006.78 1006.74 1006.79 1006.90 1007.07 1007.27 1007.47 1007.65 1007.79 1007.87 1007.87 1007.79 1007.63 1007.39 1007.10 1006.77 1006.42 1006.08 1005.77 1005.50 1005.28 1005.09 1004.95 1004.84 1004.75 1004.67 1004.60 1004.56 1004.54 1004.56 1004.65 1004.83 1005.11 1005.51
1009.84 1009.41 1008.94 1008.46 1007.98 1007.52 1007.09 1006.73 1006.44 1006.24 1006.14 1006.13 1006.21 1006.37 1006.57 1006.81 1007.04 1007.24 1007.38 1007.45 1007.44 1007.34 1007.16 1006.91 1006.61 1006.29 1005.97 1005.67 1005.41 1005.21 1005.05 1004.95 1004.89 1004.87 1004.86 1004.88 1004.92 1004.97 1005.06 1005.20 1005.40 1005.67 1006.03
1010.20 1009.71 1009.18 1008.63 1008.07 1007.51 1006.99 1006.53 1006.14 1005.84 1005.65 1005.56 1005.57 1005.68 1005.86 1006.08 1006.32 1006.55 1006.74 1006.87 1006.91 1006.88 1006.75 1006.56 1006.31 1006.03 1005.75 1005.48 1005.26 1005.09 1004.97 1004.92 1004.91 1004.95 1005.03 1005.12 1005.24 1005.37 1005.53 1005.71 1005.93 1006.20 1006.53
1010.58 1010.07 1009.51 1008.91 1008.29 1007.67 1007.08 1006.53 1006.04 1005.64 1005.35 1005.16 1005.09 1005.11 1005.23 1005.40 1005.62 1005.84 1006.03 1006.18 1006.27 1006.28 1006.21 1006.06 1005.87 1005.64 1005.41 1005.19 1005.01 1004.88 1004.81 1004.80 1004.85 1004.96 1005.10 1005.27 1005.46 1005.66 1005.87 1006.10 1006.34 1006.62 1006.92
1010.98 1010.47 1009.90 1009.28 1008.65 1007.99 1007.35 1006.74 1006.19 1005.71 1005.33 1005.04 1004.87 1004.80 1004.82 1004.92 1005.06 1005.22 1005.39 1005.52 1005.60 1005.63 1005.58 1005.48 1005.33 1005.15 1004.96 1004.79 1004.65 1004.57 1004.54 1004.58 1004.69 1004.84 1005.04 1005.27 1005.52 1005.78 1006.04 1006.31 1006.59 1006.87 1007.16
1011.36 1010.87 1010.32 1009.73 1009.10 1008.46 1007.82 1007.20 1006.61 1006.09 1005.64 1005.28 1005.02 1004.84 1004.76 1004.74 1004.78 1004.85 1004.93 1005.00 1005.04 1005.04 1004.99 1004.89 1004.76 1004.61 1004.46 1004.32 1004.22 1004.17 1004.18 1004.26 1004.39 1004.58 1004.82 1005.09 1005.38 1005.69 1006.00 1006.31 1006.61 1006.92 1007.22
1011.70 1011.25 1010.75 1010.20 1009.63 1009.03 1008.44 1007.85 1007.28 1006.76 1006.29 1005.88 1005.54 1005.28 1005.08 1004.95 1004.86 1004.81 1004.77 1004.74 1004.69 1004.62 1004.52 1004.40 1004.25 1004.10 1003.96 1003.84 1003.75 1003.72 1003.74 1003.83 1003.97 1004.18 1004.43 1004.72 1005.03 1005.36 1005.71 1006.05 1006.40 1006.73 1007.07
1011.97 1011.57 1011.12 1010.65 1010.16 1009.65 1009.14 1008.63 1008.13 1007.65 1007.19 1006.77 1006.40 1006.06 1005.77 1005.52 1005.30 1005.11 1004.94 1004.78 1004.61 1004.44 1004.26 1004.07 1003.89 1003.70 1003.54 1003.40 1003.31 1003.26 1003.27 1003.33 1003.46 1003.64 1003.88 1004.15 1004.47 1004.81 1005.17 1005.54 1005.92 1006.31 1006.69
1012.13 1011.78 1011.41 1011.02 1010.63 1010.23 1009.83 1009.42 1009.02 1008.62 1008.22 1007.83 1007.44 1007.07 1006.71 1006.36 1006.03 1005.70 1005.39 1005.09 1004.80 1004.52 1004.24 1003.97 1003.71 1003.47 1003.26 1003.09 1002.95 1002.85 1002.81 1002.83 1002.90 1003.03 1003.21 1003.44 1003.72 1004.04 1004.40 1004.79 1005.20 1005.64 1006.08
1012.17 1011.87 1011.56 1011.26 1010.97 1010.68 1010.40 1010.12 1009.82 1009.52 1009.20 1008.85 1008.49 1008.10 1007.70 1007.28 1006.86 1006.44 1006.01 1005.60 1005.19 1004.80 1004.43 1004.08 1003.75 1003.45 1003.17 1002.93 1002.73 1002.57 1002.46 1002.39 1002.37 1002.41 1002.50 1002.66 1002.87 1003.15 1003.48 1003.86 1004.29 1004.76 1005.26
1012.08 1011.82 1011.57 1011.34 1011.14 1010.95 1010.78 1010.60 1010.41 1010.20 1009.96 1009.67 1009.34 1008.97 1008.56 1008.11 1007.64 1007.15 1006.65 1006.16 1005.68 1005.22 1004.77 1004.36 1003.97 1003.61 1003.28 1002.98 1002.70 1002.46 1002.25 1002.08 1001.96 1001.88 1001.86 1001.91 1002.03 1002.23 1002.50 1002.85 1003.28 1003.76 1004.30
1011.87 1011.64 1011.44 1011.27 1011.13 1011.01 1010.92 1010.82 1010.71 1010.57 1010.38 1010.15 1009.86 1009.52 1009.12 1008.67 1008.19 1007.69 1007.17 1006.65 1006.14 1005.65 1005.19 1004.74 1004.33 1003.93 1003.56 1003.20 1002.87 1002.54 1002.24 1001.96 1001.71 1001.51 1001.36 1001.29 1001.29 1001.39 1001.58 1001.87 1002.26 1002.73 1003.28
Thickness
5698 5693 5688 5685 5681 5677 5672 5669 5665 5662 5660 5659 5658 5656 5655 5654 5653 5653 5652 5654 5656 5658 5661 5664 5668 5672 5675 5679 5683 5686 5689 5692 5693 5701 5709 5715 5719 5722 5725 5728 5731 5731 5730
5700 5695 5691 5687 5683 5678 5674 5670 5667 5663 5661 5659 5657 5654 5652 5650 5649 5647 5646 5648 5649 5651 5654 5657 5661 5666 5669 5673 5676 5679 5682 5686 5688 5691 5698 5704 5710 5715 5718 5720 5723 5724 5725
5703 5697 5692 5688 5684 5679 5675 5671 5667 5664 5661 5658 5656 5652 5650 5647 5645 5643 5641 5642 5643 5645 5648 5650 5654 5658 5661 5665 5669 5672 5676 5681 5683 5685 5689 5695 5701 5706 5708 5711 5714 5716 5718
5705 5699 5693 5689 5685 5681 5676 5672 5668 5664 5660 5657 5654 5651 5648 5645 5642 5638 5636 5636 5638 5640 5643 5646 5649 5652 5654 5658 5662 5665 5669 5672 5675 5678 5681 5686 5691 5697 5699 5701 5703 5707 5710
5706 5700 5695 5691 5686 5681 5676 5672 5668 5663 5660 5657 5653 5649 5646 5642 5639 5634 5632 5632 5632 5634 5637 5641 5644 5647 5650 5652 5655 5658 5662 5665 5668 5671 5674 5678 5683 5687 5691 5695 5696 5698 5701
5707 5701 5697 5691 5686 5680 5676 5672 5667 5663 5660 5656 5652 5649 5645 5642 5637 5634 5630 5628 5628 5630 5632 5635 5639 5642 5645 5648 5651 5654 5657 5659 5661 5665 5668 5672 5677 5682 5685 5688 5688 5688 5690
5708 5702 5697 5692 5686 5681 5677 5672 5667 5663 5660 5657 5653 5649 5645 5641 5637 5634 5630 5627 5627 5628 5630 5632 5635 5638 5640 5642 5645 5649 5652 5656 5659 5661 5663 5668 5672 5677 5680 5680 5682 5683 5686
5708 5703 5698 5693 5687 5682 5677 5672 5668 5665 5661 5657 5654 5651 5647 5643 5639 5634 5631 5628 5628 5629 5630 5631 5631 5632 5634 5635 5638 5642 5646 5651 5655 5658 5661 5665 5668 5672 5675 5677 5677 5677 5678
5708 5703 5699 5694 5688 5683 5678 5674 5670 5666 5662 5659 5656 5652 5648 5645 5641 5636 5632 5629 5628 5629 5630 5629 5629 5629 5630 5631 5633 5636 5640 5645 5650 5654 5658 5661 5663 5666 5668 5668 5668 5668 5668
5708 5705 5701 5696 5690 5684 5680 5676 5672 5669 5664 5661 5658 5655 5652 5648 5644 5638 5634 5630 5628 5628 5628 5628 5627 5626 5627 5628 5629 5631 5634 5639 5643 5647 5651 5654 5657 5660 5662 5664 5665 5665 5664
5710 5705 5700 5696 5691 5686 5682 5678 5674 5670 5666 5663 5660 5658 5655 5651 5647 5641 5636 5631 5628 5626 5626 5625 5625 5625 5626 5626 5627 5629 5632 5635 5638 5641 5645 5648 5651 5654 5656 5659 5661 5662 5662
5708 5703 5698 5695 5691 5689 5683 5679 5675 5671 5666 5664 5661 5659 5658 5655 5649 5644 5639 5634 5630 5627 5625 5625 5625 5625 5625 5626 5627 5628 5631 5633 5635 5637 5640 5643 5645 5648 5651 5653 5656 5658 5660
5704 5700 5697 5695 5692 5688 5684 5680 5676 5672 5667 5664 5662 5659 5657 5656 5652 5647 5642 5637 5634 5629 5627 5627 5626 5626 5626 5627 5628 5628 5629 5630 5632 5634 5636 5639 5642 5644 5646 5647 5649 5651 5652
5699 5697 5696 5693 5691 5689 5686 5682 5677 5672 5668 5665 5662 5659 5657 5655 5652 5648 5643 5639 5635 5632 5629 5628 5628 5628 5627 5626 5627 5627 5628 5629 5630 5631 5633 5635 5637 5639 5640 5641 5642 5643 5643
5694 5693 5692 5691 5689 5687 5685 5682 5679 5676 5671 5666 5663 5660 5656 5653 5651 5648 5643 5639 5635 5631 5628 5628 5628 5629 5628 5628 5628 5628 5628 5628 5628 5629 5630 5631 5632 5633 5634 5634 5635 5637 5636
5685 5685 5684 5683 5682 5681 5680 5680 5680 5677 5675 5671 5667 5662 5659 5656 5652 5647 5644 5640 5636 5632 5628 5628 5629 5629 5628 5628 5627 5627 5626 5626 5626 5626 5626 5626 5627 5628 5628 5629 5629 5631 5630
5676 5675 5674 5674 5673 5673 5673 5672 5672 5674 5673 5669 5666 5662 5658 5655 5651 5647 5643 5639 5635 5632 5628 5629 5630 5630 5630 5629 5628 5627 5626 5626 5625 5624 5624 5623 5624 5624 5624 5625 5625 5625 5625
5667 5666 5664 5664 5664 5665 5666 5667 5667 5666 5665 5665 5665 5662 5658 5655 5650 5645 5640 5636 5634 5633 5631 5631 5631 5632 5631 5630 5629 5628 5627 5626 5625 5623 5623 5622 5622 5621 5621 5621 5621 5621 5621
5656 5655 5655 5655 5657 5658 5659 5660 5660 5660 5660 5660 5661 5660 5657 5652 5647 5642 5637 5632 5633 5634 5634 5634 5634 5633 5632 5631 5630 5629 5627 5626 5625 5624 5622 5621 5621 5620 5619 5619 5618 5618 5617
5645 5646 5646 5646 5647 5648 5648 5649 5650 5651 5651 5651 5651 5651 5649 5645 5641 5639 5634 5633 5633 5633 5634 5634 5635 5634 5633 5631 5630 5628 5627 5626 5625 5624 5623 5622 5621 5620 5619 5618 5617 5616 5616
5634 5635 5636 5636 5636 5636 5636 5637 5638 5639 5639 5640 5640 5642 5640 5638 5637 5637 5636 5634 5633 5633 5633 5633 5633 5633 5631 5630 5629 5627 5626 5625 5625 5624 5623 5622 5621 5620 5619 5618 5617 5616 5615
5622 5622 5623 5623 5623 5623 5623 5624 5624 5624 5625 5625 5626 5628 5629 5627 5627 5628 5628 5629 5629 5630 5631 5631 5631 5630 5629 5628 5627 5625 5624 5624 5623 5623 5622 5621 5620 5619 5618 5617 5616 5615 5614
5609 5609 5609 5609 5609 5609 5609 5609 5609 5608 5608 5608 5609 5610 5610 5609 5609 5610 5611 5614 5616 5618 5620 5622 5623 5624 5624 5624 5624 5623 5622 5621 5622 5622 5621 5620 5618 5618 5617 5616 5615 5614 5613
5597 5597 5596 5595 5595 5594 5594 5594 5593 5593 5592 5592 5592 5592 5591 5591 5591 5592 5593 5594 5596 5599 5601 5604 5607 5610 5612 5614 5616 5617 5618 5619 5619 5618 5618 5617 5616 5616 5615 5614 5613 5613 5611
5585 5584 5583 5582 5581 5580 5579 5578 5578 5577 5576 5575 5574 5573 5572 5572 5572 5573 5573 5573 5575 5577 5579 5581 5585 5588 5592 5597 5600 5603 5606 5609 5610 5611 5613 5613 5613 5612 5612 5612 5611 5610 5609
5573 5573 5571 5570 5568 5566 5565 5563 5562 5561 5560 5558 5557 5555 5554 5553 5553 5552 5552 5552 5553 5555 5557 5559 5562 5565 5570 5576 5580 5584 5589 5593 5597 5600 5603 5605 5607 5608 5608 5607 5607 5607 5606